When you browse on this site, cookies collect data to enhance your experience and personalize the content and advertising you see.
Visit our Privacy Policy to learn more. By continuing to use the site, you agree to this use of cookies and data.
  • En España
  • Lista de países
  • Para 7 días
  • Temperatura del agua
  • El tiempo en el mapa
  • Informadores
  • user-avatar
    Iniciar sesión

    Tiempo cada hora Tarim

    Hoy, 21 Septiembre, Sábado

    Tiempo Temperatura Precipitaciones Viento Presión Humedad
    00:00 +27°C° 0 mm 1 mps 704 mmHg 62%
    01:00 +27°C° 0 mm 1 mps 704 mmHg 68%
    02:00 +26°C° 0 mm 1 mps 703 mmHg 73%
    03:00 +25°C° 0 mm 1 mps 703 mmHg 83%
    04:00 +25°C° 0 mm 1 mps 703 mmHg 84%
    05:00 +25°C° 0 mm 1 mps 704 mmHg 84%
    06:00 +25°C° 0 mm 1 mps 705 mmHg 85%
    07:00 +27°C° 0 mm 1 mps 705 mmHg 74%
    08:00 +29°C° 0 mm 2 mps 705 mmHg 62%
    09:00 +31°C° 0 mm 2 mps 705 mmHg 51%
    10:00 +34°C° 0 mm 3 mps 705 mmHg 40%
    11:00 +36°C° 0 mm 3 mps 704 mmHg 30%
    12:00 +40°C° 0 mm 4 mps 704 mmHg 19%
    13:00 +40°C° 0 mm 4 mps 703 mmHg 17%
    14:00 +41°C° 0 mm 4 mps 703 mmHg 15%
    15:00 +41°C° 0 mm 5 mps 703 mmHg 13%
    16:00 +39°C° 0 mm 5 mps 703 mmHg 14%
    17:00 +37°C° 0 mm 5 mps 703 mmHg 14%
    18:00 +35°C° 0 mm 5 mps 703 mmHg 15%
    19:00 +33°C° 0 mm 4 mps 703 mmHg 22%
    20:00 +30°C° 0 mm 3 mps 703 mmHg 28%
    21:00 +28°C° 0 mm 1 mps 703 mmHg 35%
    22:00 +27°C° 0 mm 1 mps 703 mmHg 41%
    23:00 +27°C° 0 mm 1 mps 703 mmHg 47%

    Mañana, 22 Septiembre, Domingo

    Tiempo Temperatura Precipitaciones Viento Presión Humedad
    00:00 +26°C° 0 mm 1 mps 703 mmHg 52%
    01:00 +23°C° 0 mm 0 mps 703 mmHg 54%
    02:00 +23°C° 0 mm 0 mps 703 mmHg 56%
    03:00 +23°C° 0 mm 0 mps 702 mmHg 57%
    04:00 +23°C° 0 mm 0 mps 703 mmHg 57%
    05:00 +23°C° 0 mm 0 mps 703 mmHg 56%
    06:00 +23°C° 0 mm 0 mps 704 mmHg 56%
    07:00 +28°C° 0 mm 1 mps 704 mmHg 46%
    08:00 +31°C° 0 mm 1 mps 705 mmHg 36%
    09:00 +34°C° 0 mm 1 mps 705 mmHg 27%
    10:00 +37°C° 0 mm 2 mps 705 mmHg 22%
    11:00 +40°C° 0 mm 4 mps 705 mmHg 17%
    12:00 +42°C° 0 mm 5 mps 704 mmHg 13%
    13:00 +42°C° 0 mm 5 mps 704 mmHg 13%
    14:00 +42°C° 0 mm 5 mps 703 mmHg 13%
    15:00 +42°C° 0 mm 5 mps 703 mmHg 13%
    16:00 +41°C° 0 mm 4 mps 703 mmHg 14%
    17:00 +38°C° 0 mm 4 mps 702 mmHg 15%
    18:00 +37°C° 0 mm 3 mps 702 mmHg 17%
    19:00 +35°C° 0 mm 2 mps 703 mmHg 20%
    20:00 +32°C° 0 mm 2 mps 703 mmHg 24%
    21:00 +30°C° 0 mm 1 mps 703 mmHg 28%
    22:00 +29°C° 0 mm 1 mps 703 mmHg 34%
    23:00 +28°C° 0 mm 1 mps 703 mmHg 40%

    Pasado mañana, 23 Septiembre, Lunes

    Tiempo Temperatura Precipitaciones Viento Presión Humedad
    00:00 +27°C° 0 mm 1 mps 703 mmHg 46%
    01:00 +27°C° 0 mm 1 mps 703 mmHg 50%
    02:00 +26°C° 0 mm 1 mps 703 mmHg 53%
    03:00 +24°C° 0 mm 0 mps 703 mmHg 57%
    04:00 +26°C° 0 mm 1 mps 703 mmHg 57%
    05:00 +26°C° 0 mm 1 mps 703 mmHg 56%
    06:00 +26°C° 0 mm 1 mps 704 mmHg 56%
    07:00 +30°C° 0 mm 2 mps 704 mmHg 46%
    08:00 +34°C° 0 mm 3 mps 705 mmHg 35%
    09:00 +37°C° 0 mm 4 mps 705 mmHg 25%
    10:00 +40°C° 0 mm 4 mps 705 mmHg 21%
    11:00 +41°C° 0 mm 4 mps 704 mmHg 17%
    12:00 +43°C° 0 mm 4 mps 704 mmHg 13%
    13:00 +43°C° 0 mm 5 mps 703 mmHg 12%
    14:00 +44°C° 0 mm 6 mps 703 mmHg 11%
    15:00 +45°C° 0 mm 7 mps 702 mmHg 9%
    16:00 +43°C° 0 mm 7 mps 702 mmHg 11%
    17:00 +40°C° 0 mm 6 mps 702 mmHg 12%
    18:00 +37°C° 0 mm 5 mps 703 mmHg 13%
    19:00 +35°C° 0 mm 4 mps 703 mmHg 23%
    20:00 +33°C° 0 mm 3 mps 703 mmHg 33%
    21:00 +30°C° 0 mm 3 mps 704 mmHg 43%
    22:00 +29°C° 0 mm 2 mps 704 mmHg 52%
    23:00 +28°C° 0 mm 2 mps 704 mmHg 62%

    24 Septiembre, Martes

    Tiempo Temperatura Precipitaciones Viento Presión Humedad
    00:00 +27°C° 0 mm 2 mps 704 mmHg 71%
    01:00 +26°C° 0 mm 2 mps 703 mmHg 76%
    02:00 +25°C° 0 mm 1 mps 703 mmHg 82%
    03:00 +24°C° 0 mm 1 mps 702 mmHg 88%
    04:00 +24°C° 0 mm 1 mps 703 mmHg 88%
    05:00 +22°C° 0 mm 0 mps 703 mmHg 89%
    06:00 +22°C° 0 mm 0 mps 704 mmHg 89%
    07:00 +25°C° 0 mm 0 mps 704 mmHg 75%
    08:00 +30°C° 0 mm 1 mps 704 mmHg 60%
    09:00 +32°C° 0 mm 1 mps 705 mmHg 46%
    10:00 +34°C° 0 mm 1 mps 704 mmHg 36%
    11:00 +37°C° 0 mm 2 mps 704 mmHg 26%
    12:00 +40°C° 0 mm 2 mps 704 mmHg 16%
    13:00 +40°C° 0 mm 3 mps 703 mmHg 15%
    14:00 +42°C° 0 mm 4 mps 703 mmHg 14%
    15:00 +42°C° 0 mm 4 mps 702 mmHg 13%
    16:00 +40°C° 0 mm 4 mps 702 mmHg 15%
    17:00 +37°C° 0 mm 4 mps 702 mmHg 18%
    18:00 +35°C° 0 mm 4 mps 702 mmHg 21%
    19:00 +33°C° 0 mm 3 mps 703 mmHg 35%
    20:00 +30°C° 0 mm 2 mps 703 mmHg 49%
    21:00 +28°C° 0 mm 1 mps 703 mmHg 63%
    22:00 +28°C° 0 mm 1 mps 703 mmHg 66%
    23:00 +27°C° 0 mm 1 mps 703 mmHg 68%

    25 Septiembre, Miércoles

    Tiempo Temperatura Precipitaciones Viento Presión Humedad
    00:00 +27°C° 0 mm 1 mps 703 mmHg 71%
    01:00 +26°C° 0 mm 1 mps 703 mmHg 75%
    02:00 +26°C° 0 mm 2 mps 703 mmHg 79%
    03:00 +25°C° 0 mm 2 mps 703 mmHg 83%
    04:00 +25°C° 0 mm 2 mps 703 mmHg 86%
    05:00 +24°C° 0 mm 2 mps 704 mmHg 88%
    06:00 +24°C° 0 mm 1 mps 704 mmHg 91%
    07:00 +26°C° 0 mm 1 mps 704 mmHg 76%
    08:00 +29°C° 0 mm 1 mps 705 mmHg 62%
    09:00 +32°C° 0 mm 1 mps 705 mmHg 47%
    10:00 +35°C° 0 mm 2 mps 705 mmHg 37%
    11:00 +37°C° 0 mm 2 mps 705 mmHg 27%
    12:00 +40°C° 0 mm 3 mps 704 mmHg 17%
    13:00 +41°C° 0 mm 4 mps 704 mmHg 16%
    14:00 +42°C° 0 mm 5 mps 703 mmHg 16%
    15:00 +42°C° 0 mm 6 mps 703 mmHg 15%
    16:00 +40°C° 0 mm 7 mps 703 mmHg 18%
    17:00 +39°C° 0 mm 7 mps 703 mmHg 21%
    18:00 +37°C° 0 mm 8 mps 704 mmHg 24%
    19:00 +35°C° 0 mm 6 mps 704 mmHg 27%
    20:00 +34°C° 0 mm 4 mps 704 mmHg 30%
    21:00 +33°C° 0 mm 3 mps 705 mmHg 33%
    22:00 +31°C° 0 mm 2 mps 705 mmHg 37%
    23:00 +30°C° 0 mm 1 mps 705 mmHg 41%

    26 Septiembre, Jueves

    Tiempo Temperatura Precipitaciones Viento Presión Humedad
    00:00 +27°C° 0 mm 0 mps 704 mmHg 45%
    01:00 +27°C° 0 mm 0 mps 704 mmHg 46%
    02:00 +27°C° 0 mm 0 mps 704 mmHg 48%
    03:00 +28°C° 0 mm 1 mps 704 mmHg 49%
    04:00 +26°C° 0 mm 0 mps 704 mmHg 52%
    05:00 +25°C° 0 mm 0 mps 704 mmHg 54%
    06:00 +25°C° 0 mm 0 mps 705 mmHg 56%
    07:00 +27°C° 0 mm 0 mps 705 mmHg 48%
    08:00 +30°C° 0 mm 0 mps 706 mmHg 40%
    09:00 +33°C° 0 mm 0 mps 706 mmHg 31%
    10:00 +37°C° 0 mm 2 mps 706 mmHg 27%
    11:00 +40°C° 0 mm 4 mps 705 mmHg 22%
    12:00 +42°C° 0 mm 6 mps 705 mmHg 17%
    13:00 +42°C° 0 mm 6 mps 704 mmHg 17%
    14:00 +42°C° 0 mm 6 mps 703 mmHg 17%
    15:00 +41°C° 0 mm 6 mps 703 mmHg 17%
    16:00 +40°C° 0 mm 5 mps 703 mmHg 18%
    17:00 +39°C° 0 mm 5 mps 703 mmHg 20%
    18:00 +37°C° 0 mm 4 mps 703 mmHg 21%
    19:00 +36°C° 0 mm 4 mps 704 mmHg 25%
    20:00 +35°C° 0 mm 5 mps 704 mmHg 28%
    21:00 +34°C° 0 mm 6 mps 705 mmHg 31%
    22:00 +32°C° 0 mm 5 mps 704 mmHg 46%
    23:00 +29°C° 0 mm 4 mps 704 mmHg 60%
    Mostrar más